Weather History for KGTF - October, 2012

Change the Weather History Date:

Friday, October 19, 2012

  Actual Average Record
Temperature  
Mean Temperature 59 °F 44 °F  
Max Temperature 66 °F 57 °F 81 °F (1974)
Min Temperature 51 °F 32 °F 2 °F (1905)
Degree Days  
Heating Degree Days 6 21  
Month to date heating degree days 319 336  
Since 1 July heating degree days 496 743  
Cooling Degree Days 0 0  
Month to date cooling degree days 0 0  
Year to date cooling degree days 484 297  
Growing Degree Days 8 (Base 50)    
Moisture  
Dew Point 32 °F    
Average Humidity 40    
Maximum Humidity 47    
Minimum Humidity 32    
Precipitation  
Precipitation 0.00 in 0.03 in 0.43 in (1979)
Month to date precipitation 1.07 0.59  
Year to date precipitation 10.86 13.34  
Snow  
Snow 0.00 in 0.20 in 2.20 in (1930)
Month to date snowfall 1.5 2.1  
Since 1 July snowfall 1.5 3.6  
Since 1 September snowfall 1.5 3.3  
Snow Depth 0.00 in    
Sea Level Pressure  
Sea Level Pressure 29.68 in    
Wind  
Wind Speed 23 mph (SW)    
Max Wind Speed 43 mph    
Max Gust Speed 49 mph    
Visibility 10 miles    
Events      
T = Trace of Precipitation, MM = Missing Value Source: NWS Daily Summary

Daily Weather History Graph

Daily Weather History Graph

Search for Another Location

Airport or City:

Trip Planner

Search our weather history database for the weather conditions in past years. The results will help you decide how hot, cold, wet, or windy it might be!

Date:

Astronomy

Oct. 19, 2012 Rise Set
Actual Time 7:50 AM MDT 6:29 PM MDT
Civil Twilight 7:19 AM MDT 7:00 PM MDT
Nautical Twilight 6:43 AM MDT 7:36 PM MDT
Astronomical Twilight 6:08 AM MDT 8:11 PM MDT
Moon 12:51 PM MDT (10/19) 9:57 PM MDT (10/19)
Length of Visible Light 11h 40m
Length of Day
10h 38m
Waxing Crescent, 24% of the Moon is Illuminated
Oct 19
Waxing Crescent
Oct 21
First Quarter
Oct 29
Full
Nov 6
Last Quarter
Nov 13
New

Hourly Weather History & Observations

Time (MDT) Temp. Dew Point Humidity Pressure Visibility Wind Dir Wind Speed Gust Speed Precip Events Conditions
12:53 AM 51.1 °F 30.0 °F 44% 29.89 in 10.0 mi SSW 13.8 mph - N/A   Clear
1:53 AM 55.0 °F 28.0 °F 35% 29.84 in 10.0 mi South 12.7 mph - N/A   Clear
2:53 AM 54.0 °F 28.0 °F 37% 29.81 in 10.0 mi South 13.8 mph - N/A   Clear
3:53 AM 55.0 °F 27.0 °F 34% 29.78 in 10.0 mi SSW 16.1 mph - N/A   Clear
4:53 AM 55.0 °F 27.0 °F 34% 29.75 in 10.0 mi SSW 18.4 mph - N/A   Clear
5:53 AM 55.0 °F 28.0 °F 35% 29.72 in 10.0 mi South 10.4 mph - N/A   Clear
6:53 AM 57.9 °F 28.0 °F 32% 29.72 in 10.0 mi SSW 24.2 mph 29.9 mph N/A   Clear
7:53 AM 57.0 °F 28.0 °F 33% 29.76 in 10.0 mi SSW 23.0 mph 33.4 mph N/A   Clear
8:53 AM 57.9 °F 28.0 °F 32% 29.74 in 10.0 mi SSW 24.2 mph 31.1 mph N/A   Clear
9:53 AM 59.0 °F 30.0 °F 33% 29.75 in 10.0 mi SSW 17.3 mph 31.1 mph N/A   Clear
10:53 AM 60.1 °F 32.0 °F 35% 29.70 in 10.0 mi SW 27.6 mph 40.3 mph N/A   Clear
11:53 AM 63.0 °F 33.1 °F 33% 29.72 in 10.0 mi SW 26.5 mph 33.4 mph N/A   Mostly Cloudy
12:53 PM 64.9 °F 35.1 °F 33% 29.69 in 10.0 mi SW 27.6 mph 36.8 mph N/A   Clear
1:53 PM 63.0 °F 36.0 °F 37% 29.65 in 10.0 mi SW 25.3 mph 34.5 mph N/A   Clear
2:53 PM 62.1 °F 37.0 °F 39% 29.65 in 10.0 mi SW 26.5 mph 34.5 mph N/A   Clear
3:53 PM 63.0 °F 35.1 °F 35% 29.60 in 10.0 mi WSW 36.8 mph 48.3 mph N/A   Clear
4:53 PM 63.0 °F 33.1 °F 33% 29.58 in 10.0 mi West 38.0 mph 47.2 mph N/A   Clear
5:53 PM 62.1 °F 33.1 °F 34% 29.62 in 10.0 mi West 18.4 mph - N/A   Scattered Clouds
6:53 PM 60.1 °F 33.1 °F 36% 29.59 in 10.0 mi WSW 23.0 mph 34.5 mph N/A   Clear
7:53 PM 59.0 °F 34.0 °F 39% 29.58 in 10.0 mi WSW 23.0 mph 34.5 mph N/A   Clear
8:53 PM 57.9 °F 33.1 °F 39% 29.56 in 10.0 mi WSW 26.5 mph 36.8 mph N/A   Clear
9:53 PM 53.1 °F 33.1 °F 47% 29.59 in 10.0 mi SW 11.5 mph - N/A   Clear
10:53 PM 57.0 °F 33.1 °F 40% 29.55 in 10.0 mi SW 24.2 mph 34.5 mph N/A   Clear
11:53 PM 55.9 °F 36.0 °F 47% 29.52 in 10.0 mi SSW 25.3 mph 32.2 mph N/A   Partly Cloudy